Date String (YYYY-MM-DD hh:mm:ss) UTC,Instrument flags,absolute air pressure of the measurement (hPa),sample flow rate (lpm),inlet stack bypass flow (lpm),air temperature of the measurement (°C),ambient temperature measured by the external sensor (°C),aerosol sample conditioner tube jacket temperature (°C),OPC LED temperature (°C),internal box temperature (°C),relative humidity of the measurement (%),span deviation,mass concentration of particles derived from Lorenz-Mie calculation of OPC scattering (μg/m³),mass concentration of particles derived from Lorenz-Mie calculation of OPC scattering (μg/m³),mass concentration of particles derived from Lorenz-Mie calculation of OPC scattering (μg/m³)
DateTimeUTC,F1_M11,P_M11,Q1_M11,Q2_M11,T1_M11,T2_M11,T3_M11,T4_M11,T5_M11,U1_M11,ZSPAN_M11,X2_M11,X0_M11,X1_M11
2024-05-09 19:00:00,SystemResetWarning,0833.2,4.98,000.00,026.0,025.4,000.0,034.3,027.8,015.9,0000.0,0001.33,0005.95,0001.03
2024-05-09 19:01:00,SystemResetWarning,0833.2,5.00,000.00,026.0,025.5,000.0,034.3,027.8,016.0,0000.0,0001.31,0006.54,0001.01
2024-05-09 19:02:00,SystemResetWarning,0833.3,5.00,000.00,026.1,025.5,000.0,034.3,027.9,016.3,0000.0,0001.27,0006.55,0000.99
2024-05-09 19:03:00,SystemResetWarning,0833.2,5.01,000.00,026.1,025.6,000.0,034.4,027.9,016.2,0000.0,0001.24,0006.16,0000.98
2024-05-09 19:04:00,SystemResetWarning,0833.2,5.00,000.00,026.2,025.6,000.0,034.4,027.9,016.6,0000.0,0001.22,0005.08,0000.97
2024-05-09 19:05:00,SystemResetWarning,0833.2,5.00,000.00,026.2,025.7,000.0,034.4,028.0,016.6,0000.0,0001.26,0005.03,0000.97
2024-05-09 19:06:00,SystemResetWarning,0833.2,5.00,000.00,026.2,025.7,000.0,034.4,028.0,016.8,0000.0,0001.27,0004.96,0000.97
2024-05-09 19:07:00,SystemResetWarning,0833.2,5.00,000.00,026.2,025.7,000.0,034.4,028.1,016.6,0000.0,0001.26,0004.90,0000.98
2024-05-09 19:08:00,SystemResetWarning,0833.2,5.00,000.00,026.3,025.8,000.0,034.4,028.1,016.5,0000.0,0001.28,0004.91,0000.99
2024-05-09 19:09:00,SystemResetWarning,0833.2,4.99,000.00,026.3,025.8,000.0,034.5,028.1,016.8,0000.0,0001.33,0004.62,0001.01
2024-05-09 19:10:00,SystemResetWarning,0833.2,5.00,000.00,026.3,025.8,000.0,034.5,028.1,016.6,0000.0,0001.31,0002.83,0001.02
2024-05-09 19:11:00,SystemResetWarning,0833.2,5.00,000.00,026.4,025.9,000.0,034.5,028.2,016.4,0000.0,0001.32,0002.85,0001.03
2024-05-09 19:12:00,SystemResetWarning,0833.2,5.01,000.00,026.4,025.9,000.0,034.5,028.2,016.3,0000.0,0001.32,0002.43,0001.03
2024-05-09 19:13:00,SystemResetWarning,0833.2,5.02,000.00,026.4,025.9,000.0,034.6,028.2,016.2,0000.0,0001.30,0002.13,0001.03
2024-05-09 19:14:00,SystemResetWarning,0833.2,5.00,000.00,026.5,026.0,000.0,034.6,028.2,016.2,0000.0,0001.31,0002.13,0001.04
2024-05-09 19:15:00,SystemResetWarning,0833.2,4.99,000.00,026.5,026.0,000.0,034.6,028.3,016.0,0000.0,0001.32,0002.14,0001.05
2024-05-09 19:16:00,SystemResetWarning,0833.2,4.99,000.00,026.5,026.0,000.0,034.6,028.3,016.6,0000.0,0001.29,0001.99,0001.05
2024-05-09 19:17:00,SystemResetWarning,0833.2,5.00,000.00,026.5,026.0,000.0,034.7,028.3,016.8,0000.0,0001.31,0002.07,0001.05
2024-05-09 19:18:00,SystemResetWarning,0833.1,5.00,000.00,026.3,024.3,000.0,034.8,027.3,017.1,0000.0,0001.34,0002.78,0001.06
2024-05-09 19:19:00,SystemResetWarning,0833.1,5.00,000.00,025.8,022.3,000.0,034.7,026.3,017.3,0000.0,0001.37,0003.41,0001.06
2024-05-09 19:20:00,SystemResetWarning,0833.0,5.01,000.00,025.5,022.1,000.0,034.7,026.1,017.7,0000.0,0001.37,0003.45,0001.06
2024-05-09 19:21:00,SystemResetWarning,0833.1,5.02,000.00,025.4,022.5,000.0,034.5,026.3,017.9,0000.0,0001.38,0003.94,0001.07
2024-05-09 19:22:00,SystemResetWarning,0833.4,5.00,000.00,025.4,022.9,000.0,034.3,026.6,017.7,0000.0,0001.39,0005.22,0001.08
2024-05-09 19:23:00,SystemResetWarning,0833.1,5.00,000.00,025.4,023.3,000.0,034.2,026.7,018.0,0000.0,0001.42,0005.72,0001.11
2024-05-09 19:24:00,SystemResetWarning,0833.1,5.00,000.00,025.4,023.7,000.0,034.1,026.9,017.9,0000.0,0001.43,0005.66,0001.12
2024-05-09 19:25:00,SystemResetWarning,0833.1,4.99,000.00,025.4,024.0,000.0,034.0,027.0,017.7,0000.0,0001.43,0005.68,0001.12
2024-05-09 19:26:00,SystemResetWarning,0833.1,5.00,000.00,025.5,024.2,000.0,034.0,027.1,018.2,0000.0,0001.43,0005.68,0001.11
2024-05-09 19:27:00,SystemResetWarning,0833.1,5.00,000.00,025.5,024.4,000.0,034.0,027.2,018.0,0000.0,0001.44,0005.75,0001.13
2024-05-09 19:28:00,SystemResetWarning,0833.1,5.00,000.00,025.6,024.6,000.0,034.0,027.3,018.1,0000.0,0001.41,0005.99,0001.14
2024-05-09 19:29:00,SystemResetWarning,0833.2,5.01,000.00,025.6,024.8,000.0,033.9,027.4,017.7,0000.0,0001.40,0005.58,0001.15
2024-05-09 19:30:00,SystemResetWarning,0833.2,5.00,000.00,025.6,024.9,000.0,033.9,027.4,017.6,0000.0,0001.40,0004.84,0001.18
2024-05-09 19:31:00,SystemResetWarning,0833.1,5.01,000.00,025.7,025.0,000.0,034.0,027.5,017.7,0000.0,0001.40,0005.00,0001.20
2024-05-09 19:32:00,SystemResetWarning,0833.1,4.99,000.00,025.7,025.1,000.0,034.0,027.6,017.5,0000.0,0001.42,0004.74,0001.20
2024-05-09 19:33:00,SystemResetWarning,0833.2,4.99,000.00,025.8,025.2,000.0,034.0,027.6,017.3,0000.0,0001.43,0003.58,0001.21
2024-05-09 19:34:00,SystemResetWarning,0833.1,4.99,000.00,025.8,025.3,000.0,034.0,027.7,017.2,0000.0,0001.41,0003.01,0001.21
2024-05-09 19:35:00,SystemResetWarning,0833.1,5.00,000.00,025.9,025.4,000.0,034.0,027.7,017.2,0000.0,0001.41,0002.99,0001.21
2024-05-09 19:36:00,SystemResetWarning,0833.1,5.01,000.00,025.9,025.4,000.0,034.1,027.7,017.1,0000.0,0001.42,0003.02,0001.22
2024-05-09 19:37:00,SystemResetWarning,0833.1,5.00,000.00,026.0,025.5,000.0,034.1,027.8,016.9,0000.0,0001.42,0003.08,0001.22
2024-05-09 19:38:00,SystemResetWarning,0833.1,5.00,000.00,026.0,025.5,000.0,034.1,027.8,016.9,0000.0,0001.41,0003.01,0001.20
2024-05-09 19:39:00,SystemResetWarning,0833.1,4.99,000.00,026.0,025.6,000.0,034.1,027.9,017.0,0000.0,0001.42,0002.67,0001.19
2024-05-09 19:40:00,SystemResetWarning,0833.1,4.99,000.00,026.1,025.6,000.0,034.2,027.9,016.7,0000.0,0001.41,0002.45,0001.18
2024-05-09 19:41:00,SystemResetWarning,0833.1,5.00,000.00,026.1,025.7,000.0,034.2,027.9,016.6,0000.0,0001.44,0002.61,0001.17
2024-05-09 19:42:00,SystemResetWarning,0833.1,5.00,000.00,026.2,025.7,000.0,034.2,028.0,016.4,0000.0,0001.42,0002.39,0001.16
2024-05-09 19:43:00,SystemResetWarning,0833.2,5.00,000.00,026.2,025.7,000.0,034.3,028.0,016.3,0000.0,0001.40,0002.29,0001.16
2024-05-09 19:44:00,SystemResetWarning,0833.2,5.00,000.00,026.2,025.8,000.0,034.3,028.0,016.1,0000.0,0001.41,0003.12,0001.16
2024-05-09 19:45:00,SystemResetWarning,0833.2,5.00,000.00,026.3,025.8,000.0,034.3,028.1,016.0,0000.0,0001.45,0003.20,0001.16
2024-05-09 19:46:00,SystemResetWarning,0833.1,5.00,000.00,026.3,025.6,000.0,034.4,027.9,015.9,0000.0,0001.50,0003.44,0001.16
2024-05-09 19:47:00,SystemResetWarning,0833.1,5.01,000.00,026.0,023.4,000.0,034.5,026.8,016.2,0000.0,0001.51,0003.48,0001.14
2024-05-09 19:48:00,SystemResetWarning,0833.0,5.00,000.00,025.4,021.6,000.0,034.4,025.8,016.8,0000.0,0001.49,0003.39,0001.13
2024-05-09 19:49:00,SystemResetWarning,0833.4,5.01,000.00,025.2,021.8,000.0,034.3,025.7,017.0,0000.0,0001.49,0003.37,0001.14
2024-05-09 19:50:00,SystemResetWarning,0833.0,5.00,000.00,025.1,022.3,000.0,034.1,026.0,017.6,0000.0,0001.49,0004.01,0001.13
2024-05-09 19:51:00,SystemResetWarning,0833.0,5.00,000.00,025.1,022.7,000.0,034.0,026.3,017.1,0000.0,0001.44,0003.98,0001.10
2024-05-09 19:52:00,SystemResetWarning,0833.0,5.01,000.00,025.1,023.1,000.0,033.9,026.5,016.9,0000.0,0001.39,0003.81,0001.08
2024-05-09 19:53:00,SystemResetWarning,0833.4,5.01,000.00,025.1,023.5,000.0,033.8,026.7,016.8,0000.0,0001.36,0003.75,0001.05
2024-05-09 19:54:00,SystemResetWarning,0833.2,4.99,000.00,025.2,023.8,000.0,033.8,026.8,016.7,0000.0,0001.33,0003.69,0001.03
2024-05-09 19:55:00,SystemResetWarning,0833.3,4.99,000.00,025.2,024.0,000.0,033.7,026.9,017.5,0000.0,0001.31,0002.80,0001.01
2024-05-09 19:56:00,SystemResetWarning,0833.1,5.02,000.00,025.2,024.3,000.0,033.7,027.0,016.8,0000.0,0001.27,0002.62,0000.99
2024-05-09 19:57:00,SystemResetWarning,0833.1,5.00,000.00,025.3,024.4,000.0,033.7,027.1,016.5,0000.0,0001.22,0002.45,0000.97
2024-05-09 19:58:00,SystemResetWarning,0833.1,5.00,000.00,025.4,024.6,000.0,033.7,027.2,016.7,0000.0,0001.19,0002.45,0000.96
2024-05-09 19:59:00,SystemResetWarning,0833.1,4.99,000.00,025.4,024.7,000.0,033.7,027.2,016.7,0000.0,0001.19,0002.67,0000.96
